Home   Weather   Sheboygan   Past weeks

Flag for USA Past Weather in Sheboygan, Wisconsin, USA — Yesterday and Last 2 Weeks

Now
51 °F

Scattered clouds.


Feels Like: 51 °F
Forecast: 53 / 63 °F
Wind: No wind

Location: Sheboygan County Memorial Airport

Current Time: May 29, 2017 at 6:30:17 am

Latest Report: May 29, 2017 at 5:53 am


Visibility: 10 mi

Pressure: 29.70 "Hg

Humidity: 92%

Dew Point: 49 °F

Location of SheboyganLocation

Past Weather in Sheboygan — Graph

°F

Sheboygan Temperature Yesterday

Maximum temperature yesterday: 73 °F (at 3:53 pm)
Minimum temperature yesterday: 56 °F (at 11:53 pm)
Average temperature yesterday: 62 °F

High & Low Weather Summary for the Past Weeks

 TemperatureHumidityPressure
High83 °F (May 16, 5:53 pm)100% (May 15, 11:53 pm)30.27 "Hg (May 15, 11:53 pm)
Low39 °F (May 19, 4:53 am)43% (May 14, 4:53 pm)29.50 "Hg (May 17, 6:53 pm)
Average55 °F83%29.83 "Hg
* Reported May 14 4:53 am — May 29 4:53 am, Sheboygan. Weather by CustomWeather, © 2017

Note: Actual official high and low records may vary slightly from our data, if they occured in-between our weather recording intervals... More about our weather records

Advertising

Sheboygan Weather History for the Previous 24 Hours

Scroll right to see more
 ConditionsComfort  
Time TempWeatherWind HumidityBarometerVisibility
4:53 am
Mon, May 29
50 °FPassing clouds.7 mph93%29.69 "Hg10 mi
3:53 am50 °FClear.5 mph93%29.69 "Hg10 mi
2:53 am53 °FClear.3 mph86%29.70 "Hg10 mi
1:53 am54 °FClear.6 mph86%29.70 "Hg10 mi
12:53 am53 °FClear.7 mph89%29.70 "Hg10 mi
11:53 pm
Sun, May 28
56 °FClear.5 mph84%29.69 "Hg10 mi
10:53 pm59 °FPartly cloudy.6 mph78%29.70 "Hg10 mi
9:53 pm59 °FClear.3 mph78%29.71 "Hg10 mi
8:53 pm64 °FClear.3 mph63%29.69 "Hg10 mi
6:53 pm71 °FPassing clouds.10 mph63%29.65 "Hg10 mi
5:53 pm70 °FBroken clouds.13 mph64%29.65 "Hg10 mi
4:53 pm72 °FScattered clouds.15 mph61%29.66 "Hg10 mi
3:53 pm73 °FSunny.8 mph62%29.67 "Hg10 mi
2:53 pm71 °FSunny.10 mph61%29.68 "Hg10 mi
1:53 pm69 °FSunny.8 mph68%29.69 "Hg10 mi
12:53 pm66 °FPassing clouds.8 mph78%29.71 "Hg10 mi
11:53 am61 °FLight rain. Broken clouds.5 mph93%29.73 "Hg10 mi
11:35 am59 °FLight rain. Cloudy.6 mph96%29.74 "Hg10 mi
11:00 am58 °FLight rain. More clouds than sun.No wind97%29.75 "Hg7 mi
9:53 am57 °FLight rain. More clouds than sun.3 mph100%29.77 "Hg8 mi
9:13 am57 °FRain. Fog.7 mph100%29.79 "Hg4 mi
8:53 am57 °FRain. Fog.5 mph100%29.78 "Hg3 mi
8:05 am57 °FHeavy rain. Fog.12 mph100%29.78 "Hg2 mi
7:21 am61 °FThundershowers. Overcast.18 mph83%29.75 "Hg10 mi
6:53 am61 °FBroken clouds.6 mph87%29.71 "Hg10 mi
Weather by CustomWeather, © 2017

See weather overviewHow to use our weather pages